Weather History for Tucumcari, NM

Change the Weather History Date:

Tuesday, September 10, 2013

  Actual Average Record
Temperature  
Mean Temperature 76 °F -  
Max Temperature 88 °F 86 °F 98 °F (1914)
Min Temperature 64 °F 58 °F 42 °F (1929)
Cooling Degree Days 10    
Growing Degree Days 26 (Base 50)    
Moisture  
Dew Point 59 °F    
Average Humidity 63    
Maximum Humidity 87    
Minimum Humidity 33    
Precipitation  
Precipitation 0.01 in - - ()
Sea Level Pressure  
Sea Level Pressure 29.93 in    
Wind  
Wind Speed 9 mph (SSW)    
Max Wind Speed 23 mph    
Max Gust Speed 32 mph    
Visibility 10 miles    
Events Rain    
Averages and records for this station are not official NWS values.
T = Trace of Precipitation, MM = Missing Value Source: NWS Daily Summary

Daily Weather History Graph

Daily Weather History Graph

Search for Another Location

Airport:

Trip Planner

Search our weather history database for the weather conditions in past years. The results will help you decide how hot, cold, wet, or windy it might be!

Date:

Astronomy

Sep. 10, 2013 Rise Set
Actual Time 6:33 AM MDT 7:08 PM MDT
Civil Twilight 6:08 AM MDT 7:33 PM MDT
Nautical Twilight 5:38 AM MDT 8:03 PM MDT
Astronomical Twilight 5:07 AM MDT 8:34 PM MDT
Moon 11:48 AM MDT (9/10) 10:26 PM MDT (9/10)
Length of Visible Light 13h 25m
Length of Day
12h 34m
Waxing Crescent, 29% of the Moon is Illuminated
Sep 10
Waxing Crescent
Sep 12
First Quarter
Sep 19
Full
Sep 26
Last Quarter
Oct 4
New

Hourly Weather History & Observations

Time (MDT) Temp. Heat Index Dew Point Humidity Pressure Visibility Wind Dir Wind Speed Gust Speed Precip Events Conditions
12:53 AM 73.0 °F - 57.0 °F 57% 29.83 in 10.0 mi South 11.5 mph - N/A   Clear
1:53 AM 72.0 °F - 55.9 °F 57% 29.83 in 10.0 mi SSW 8.1 mph - N/A   Clear
2:53 AM 70.0 °F - 55.9 °F 61% 29.84 in 10.0 mi SSW 9.2 mph - N/A   Clear
3:53 AM 68.0 °F - 55.9 °F 65% 29.84 in 10.0 mi South 5.8 mph - N/A   Clear
4:53 AM 66.0 °F - 55.9 °F 70% 29.86 in 10.0 mi Calm Calm - N/A   Clear
5:53 AM 64.0 °F - 55.0 °F 73% 29.88 in 10.0 mi Calm Calm - N/A   Clear
6:53 AM 64.0 °F - 55.9 °F 75% 29.91 in 10.0 mi NE 3.5 mph - N/A   Scattered Clouds
7:53 AM 70.0 °F - 57.9 °F 65% 29.93 in 10.0 mi Calm Calm - N/A   Overcast
8:53 AM 73.9 °F - 59.0 °F 59% 29.94 in 10.0 mi South 8.1 mph - N/A   Mostly Cloudy
9:40 AM 73.4 °F - 60.8 °F 65% 30.14 in 10.0 mi SW 8.1 mph - N/A   Overcast
9:53 AM 73.9 °F - 60.1 °F 62% 29.96 in 10.0 mi SW 5.8 mph - N/A   Overcast
10:30 AM 75.2 °F - 60.8 °F 61% 30.14 in 10.0 mi SSE 12.7 mph 19.6 mph N/A   Mostly Cloudy
10:53 AM 78.1 °F - 60.1 °F 54% 29.95 in 10.0 mi South 9.2 mph 18.4 mph N/A   Scattered Clouds
11:53 AM 79.0 °F - 59.0 °F 50% 29.94 in 10.0 mi SSE 10.4 mph 16.1 mph N/A   Scattered Clouds
12:53 PM 82.9 °F 82.6 °F 57.9 °F 42% 29.92 in 10.0 mi South 9.2 mph 21.9 mph N/A   Clear
1:53 PM 82.9 °F 82.1 °F 55.9 °F 39% 29.88 in 10.0 mi SSE 12.7 mph 19.6 mph N/A   Mostly Cloudy
2:53 PM 87.1 °F 85.3 °F 55.0 °F 33% 29.85 in 10.0 mi South 10.4 mph 23.0 mph N/A   Scattered Clouds
3:53 PM 84.9 °F 83.7 °F 55.9 °F 37% 29.84 in 10.0 mi SSE 21.9 mph - N/A   Overcast
4:53 PM 82.9 °F 82.1 °F 55.9 °F 39% 29.89 in 10.0 mi South 19.6 mph 28.8 mph N/A   Mostly Cloudy
5:08 PM 75.2 °F - 60.8 °F 61% 30.07 in 6.0 mi SW 23.0 mph 32.2 mph N/A   Haze
5:53 PM 73.0 °F - 61.0 °F 66% 29.94 in 10.0 mi WSW 17.3 mph 26.5 mph 0.00 in Rain Light Rain
6:53 PM 70.0 °F - 64.9 °F 84% 29.94 in 8.0 mi West 8.1 mph - 0.01 in Rain Light Rain
7:53 PM 71.1 °F - 64.9 °F 81% 29.94 in 10.0 mi WNW 4.6 mph - 0.00 in   Overcast
8:53 PM 71.1 °F - 66.0 °F 84% 29.96 in 8.0 mi East 3.5 mph - 0.00 in Rain Light Rain
9:53 PM 71.1 °F - 64.9 °F 81% 29.96 in 10.0 mi ENE 6.9 mph - 0.00 in   Mostly Cloudy
10:53 PM 70.0 °F - 64.9 °F 84% 29.98 in 10.0 mi WNW 8.1 mph - 0.00 in Rain Light Rain
11:53 PM 69.1 °F - 64.9 °F 87% 29.96 in 10.0 mi North 5.8 mph - 0.00 in Rain Light Rain